| time (UTC) | temp C | wind direction | speed KPH | gust KPH | rain 1hr cm | rain 24hr cm | rain mn cm | humidity % | barometer mb |
| 20260902024600 | 25 | 0 | 0.0 | 0.0 | 0.00 | 0.13 | 0.13 | 94 | 1013.4 |
| 20260902023108 | 25 | 0 | 0.0 | 0.0 | 0.00 | 0.13 | 0.13 | 94 | 1013.5 |
| 20260902021604 | 25 | 0 | 0.0 | 0.0 | 0.00 | 0.13 | 0.13 | 94 | 1013.7 |
| 20260902020059 | 25 | 0 | 0.0 | 0.0 | 0.00 | 0.13 | 0.13 | 93 | 1013.8 |
| 20260902014601 | 25 | 0 | 0.0 | 0.0 | 0.00 | 0.13 | 0.13 | 93 | 1013.5 |
| 20260902013059 | 25 | 0 | 0.0 | 0.0 | 0.00 | 0.13 | 0.13 | 93 | 1013.2 |
| 20260902011630 | 25 | 0 | 0.0 | 0.0 | 0.00 | 0.13 | 0.13 | 92 | 1013.2 |
| 20260902010058 | 26 | 0 | 0.0 | 0.0 | 0.00 | 0.13 | 0.13 | 92 | 1013.1 |
| 20260902004604 | 26 | 0 | 0.0 | 0.0 | 0.00 | 0.13 | 0.13 | 91 | 1013.0 |
| 20260902003105 | 26 | 0 | 0.0 | 0.0 | 0.00 | 0.13 | 0.13 | 90 | 1012.9 |
| 20260902001600 | 26 | 0 | 0.0 | 0.0 | 0.00 | 0.13 | 0.13 | 88 | 1012.8 |
| 20260902000106 | 27 | 0 | 0.0 | 0.0 | 0.00 | 0.13 | 0.13 | 87 | 1012.7 |
| 20260901234611 | 27 | 0 | 0.0 | 0.0 | 0.00 | 0.13 | 0.13 | 87 | 1012.8 |
| 20260901233108 | 27 | 0 | 0.0 | 0.0 | 0.00 | 0.13 | 0.13 | 85 | 1012.8 |
| 20260901231620 | 27 | 49 | 0.0 | 3.2 | 0.00 | 0.13 | 0.13 | 83 | 1012.4 |
| 20260901230113 | 28 | 79 | 0.0 | 1.6 | 0.00 | 0.13 | 0.13 | 81 | 1012.4 |
| 20260901224602 | 28 | 0 | 0.0 | 1.6 | 0.00 | 0.13 | 0.13 | 80 | 1013.0 |
| 20260901223103 | 27 | 0 | 0.0 | 1.6 | 0.00 | 0.13 | 0.13 | 81 | 1013.1 |
| 20260901221625 | 28 | 251 | 0.0 | 1.6 | 0.00 | 0.13 | 0.13 | 80 | 1013.3 |
| 20260901220118 | 28 | 0 | 0.0 | 1.6 | 0.00 | 0.13 | 0.13 | 78 | 1013.1 |
| 20260901214558 | 28 | 0 | 0.0 | 3.2 | 0.00 | 0.13 | 0.13 | 79 | 1013.0 |
| 20260901213110 | 28 | 253 | 0.0 | 3.2 | 0.00 | 0.13 | 0.13 | 79 | 1013.3 |
| 20260901211559 | 28 | 0 | 0.0 | 1.6 | 0.00 | 0.13 | 0.13 | 80 | 1013.3 |
| 20260901210116 | 27 | 0 | 1.6 | 6.4 | 0.03 | 0.13 | 0.13 | 79 | 1013.4 |
| 20260901204613 | 27 | 0 | 0.0 | 3.2 | 0.05 | 0.13 | 0.13 | 82 | 1013.4 |
| 20260901203104 | 27 | 263 | 0.0 | 6.4 | 0.05 | 0.13 | 0.13 | 81 | 1013.4 |
| 20260901201600 | 26 | 260 | 1.6 | 4.8 | 0.10 | 0.13 | 0.13 | 87 | 1013.6 |
| 20260901200116 | 26 | 249 | 4.8 | 11.3 | 0.08 | 0.10 | 0.10 | 86 | 1013.9 |
| 20260901194611 | 26 | 243 | 1.6 | 4.8 | 0.05 | 0.08 | 0.08 | 91 | 1014.1 |
| 20260901193103 | 27 | 267 | 0.0 | 1.6 | 0.05 | 0.08 | 0.08 | 89 | 1013.8 |
| 20260901191636 | 27 | 0 | 0.0 | 3.2 | 0.00 | 0.03 | 0.03 | 84 | 1013.6 |
| 20260901190106 | 28 | 243 | 3.2 | 8.0 | 0.00 | 0.03 | 0.03 | 79 | 1014.3 |
| 20260901184605 | 29 | 240 | 3.2 | 6.4 | 0.00 | 0.03 | 0.03 | 76 | 1014.1 |
| 20260901183100 | 30 | 274 | 1.6 | 8.0 | 0.00 | 0.03 | 0.03 | 76 | 1014.0 |
| 20260901181619 | 30 | 276 | 3.2 | 9.7 | 0.00 | 0.03 | 0.03 | 77 | 1014.0 |
| 20260901180105 | 30 | 295 | 0.0 | 3.2 | 0.00 | 0.03 | 0.03 | 81 | 1013.9 |
| 20260901174601 | 28 | 260 | 1.6 | 3.2 | 0.00 | 0.03 | 0.03 | 83 | 1014.0 |
| 20260901173111 | 28 | 274 | 0.0 | 4.8 | 0.00 | 0.03 | 0.03 | 83 | 1014.1 |
| 20260901171606 | 28 | 149 | 0.0 | 1.6 | 0.00 | 0.03 | 0.03 | 87 | 1014.2 |
| 20260901170104 | 27 | 0 | 0.0 | 1.6 | 0.00 | 0.03 | 0.03 | 91 | 1014.2 |
| 20260901164618 | 26 | 0 | 0.0 | 1.6 | 0.00 | 0.03 | 0.03 | 92 | 1014.3 |
| 20260901163102 | 26 | 277 | 0.0 | 1.6 | 0.03 | 0.03 | 0.03 | 92 | 1014.3 |
| 20260901161602 | 26 | 250 | 1.6 | 6.4 | 0.03 | 0.03 | 0.03 | 92 | 1014.4 |
| 20260901160116 | 26 | 0 | 0.0 | 3.2 | 0.03 | 0.03 | 0.03 | 90 | 1014.4 |
| 20260901154600 | 27 | 47 | 0.0 | 3.2 | 0.03 | 0.03 | 0.03 | 87 | 1014.2 |
| 20260901153130 | 27 | 238 | 0.0 | 1.6 | 0.00 | 0.00 | 0.00 | 84 | 1014.6 |
| 20260901151608 | 27 | 0 | 0.0 | 0.0 | 0.00 | 0.00 | 0.00 | 84 | 1014.3 |
| 20260901150115 | 27 | 0 | 0.0 | 0.0 | 0.00 | 0.00 | 0.00 | 84 | 1014.4 |
| 20260901144602 | 27 | 0 | 0.0 | 1.6 | 0.00 | 0.00 | 0.00 | 85 | 1014.4 |
| 20260901143119 | 26 | 0 | 0.0 | 0.0 | 0.00 | 0.00 | 0.00 | 86 | 1014.2 |
| 20260901141612 | 26 | 0 | 0.0 | 1.6 | 0.00 | 0.00 | 0.00 | 86 | 1014.2 |
| 20260901140135 | 25 | 0 | 0.0 | 1.6 | 0.00 | 0.00 | 0.00 | 88 | 1014.2 |
| 20260901134602 | 25 | 0 | 0.0 | 1.6 | 0.00 | 0.00 | 0.00 | 89 | 1014.2 |
| 20260901133102 | 25 | 0 | 0.0 | 0.0 | 0.00 | 0.00 | 0.00 | 89 | 1014.3 |
| 20260901131604 | 24 | 0 | 0.0 | 0.0 | 0.00 | 0.00 | 0.00 | 91 | 1014.3 |
| 20260901130105 | 24 | 0 | 0.0 | 1.6 | 0.00 | 0.00 | 0.00 | 92 | 1014.1 |
| 20260901124601 | 23 | 0 | 0.0 | 0.0 | 0.00 | 0.00 | 0.00 | 93 | 1014.0 |
| 20260901123058 | 23 | 0 | 0.0 | 0.0 | 0.00 | 0.00 | 0.00 | 94 | 1014.2 |
| 20260901121606 | 22 | 0 | 0.0 | 0.0 | 0.00 | 0.00 | 0.00 | 94 | 1013.9 |
| 20260901120100 | 22 | 0 | 0.0 | 0.0 | 0.00 | 0.00 | 0.00 | 95 | 1013.7 |
| 20260901114558 | 22 | 0 | 0.0 | 0.0 | 0.00 | 0.00 | 0.00 | 95 | 1013.5 |
| 20260901113104 | 22 | 0 | 0.0 | 0.0 | 0.00 | 0.00 | 0.00 | 94 | 1013.3 |
| 20260901111558 | 22 | 0 | 0.0 | 0.0 | 0.00 | 0.00 | 0.00 | 94 | 1013.2 |
| 20260901104605 | 22 | 0 | 0.0 | 1.6 | 0.00 | 0.18 | 0.00 | 94 | 1012.9 |
| 20260901103059 | 22 | 0 | 0.0 | 0.0 | 0.00 | 0.18 | 0.00 | 94 | 1012.9 |
| 20260901101608 | 22 | 0 | 0.0 | 0.0 | 0.00 | 0.18 | 0.00 | 93 | 1012.9 |
| 20260901100101 | 22 | 0 | 0.0 | 0.0 | 0.00 | 0.18 | 0.00 | 92 | 1013.1 |
| 20260901094601 | 22 | 0 | 0.0 | 1.6 | 0.00 | 0.25 | 0.00 | 92 | 1013.0 |
| 20260901093110 | 23 | 256 | 0.0 | 1.6 | 0.00 | 0.25 | 0.00 | 92 | 1013.0 |
| 20260901091603 | 23 | 266 | 1.6 | 4.8 | 0.00 | 0.25 | 0.00 | 92 | 1013.1 |
| 20260901090059 | 23 | 257 | 1.6 | 4.8 | 0.00 | 0.25 | 0.00 | 93 | 1013.0 |
| 20260901084600 | 22 | 260 | 1.6 | 3.2 | 0.00 | 0.25 | 0.00 | 94 | 1013.1 |
| 20260901083059 | 22 | 257 | 0.0 | 1.6 | 0.00 | 0.25 | 0.00 | 95 | 1013.0 |
| 20260901081603 | 21 | 0 | 0.0 | 0.0 | 0.00 | 0.25 | 0.00 | 94 | 1012.9 |
| 20260901080207 | 21 | 0 | 0.0 | 0.0 | 0.00 | 0.25 | 0.00 | 94 | 1012.9 |
| 20260901074557 | 22 | 0 | 0.0 | 0.0 | 0.00 | 0.25 | 0.00 | 94 | 1013.0 |
| 20260901073102 | 22 | 0 | 0.0 | 0.0 | 0.00 | 0.25 | 0.00 | 94 | 1013.0 |
| 20260901071600 | 22 | 0 | 0.0 | 0.0 | 0.00 | 0.25 | 0.00 | 93 | 1012.9 |
| 20260901070132 | 22 | 0 | 0.0 | 0.0 | 0.00 | 0.25 | 0.00 | 91 | 1012.9 |
| 20260901064611 | 23 | 0 | 0.0 | 1.6 | 0.00 | 0.25 | 0.00 | 91 | 1012.8 |
| 20260901063105 | 23 | 274 | 0.0 | 1.6 | 0.00 | 0.25 | 0.00 | 93 | 1012.9 |
| 20260901061610 | 22 | 0 | 0.0 | 1.6 | 0.00 | 0.25 | 0.00 | 94 | 1013.0 |
| 20260901060103 | 22 | 0 | 0.0 | 1.6 | 0.00 | 0.25 | 0.00 | 95 | 1013.0 |
| 20260901054608 | 22 | 264 | 0.0 | 1.6 | 0.00 | 0.25 | 0.00 | 95 | 1013.0 |
| 20260901053111 | 21 | 0 | 0.0 | 0.0 | 0.00 | 0.25 | 0.00 | 94 | 1013.0 |
| 20260901051600 | 21 | 0 | 0.0 | 0.0 | 0.00 | 0.25 | 0.00 | 94 | 1013.0 |
| 20260901050104 | 22 | 0 | 0.0 | 0.0 | 0.00 | 0.25 | 0.00 | 94 | 1013.1 |
| 20260901044617 | 22 | 0 | 0.0 | 0.0 | 0.00 | 0.25 | 0.25 | 94 | 1013.1 |
| 20260901043059 | 22 | 0 | 0.0 | 0.0 | 0.00 | 0.25 | 0.25 | 94 | 1013.1 |
| 20260901041558 | 22 | 0 | 0.0 | 0.0 | 0.00 | 0.25 | 0.25 | 94 | 1013.0 |
| 20260901040104 | 22 | 0 | 0.0 | 0.0 | 0.00 | 0.25 | 0.25 | 94 | 1013.2 |
| 20260901034559 | 22 | 0 | 0.0 | 0.0 | 0.00 | 0.25 | 0.25 | 93 | 1013.2 |
| 20260901033056 | 22 | 0 | 0.0 | 0.0 | 0.00 | 0.25 | 0.25 | 93 | 1013.3 |
| 20260901031559 | 23 | 0 | 0.0 | 0.0 | 0.00 | 0.25 | 0.25 | 92 | 1013.3 |
| 20260901030059 | 23 | 0 | 0.0 | 0.0 | 0.00 | 0.25 | 0.25 | 92 | 1013.3 |